Moline, IL
on Thursday, February 28, 2013

Thursday
Previous Day Next Day
Daily Summary
 ActualAverageRecord
Temperature
Mean Temperature °F 32°F  
Max Temperature 35°F 41°F 66°F (1932)
Min Temperature 31°F 23°F -9°F (1962)
Degree Days
Heating Degree Days 32 33  
Month to date heating degree days 1061 1064  
Since 1 July heating degree days 4633 4798  
Cooling Degree Days 0 0  
Month to date cooling degree days 0 0  
Year to date cooling degree days 0 0  
Moisture
Dew Point 28°F   
Average Humidity 81    
Maximum Humidity 92    
Minimum Humidity 70    
Precipitation
Precipitation 0.03 in 0.08 in 0.82 in (1987)
Month to date precipitation 2.54 1.60  
Year to date precipitation 5.40 3.09  
Snow
Snow 0.60 in 0.20 in in ()
Month to date snowfall 14.3 6.8  
Since 1 July snowfall 23.9 26.7  
Snow Depth 9.00 in   
Wind
Wind Speed 9 mph   
Max Wind Speed 15 mph   
Max Gust Speed 21 mph   
Visibility 7 miles   
Events Snow   

Key: T is trace of precipitation, MM is missing value
Source: NWS Daily Summary
Time(CST)TemperatureDew PointHumidity Pressure Visibility Wind DirectionWind SpeedGust SpeedPrecipitationEvents Conditions
12:10 AM 32.0°F 28.4°F 87% 29.82 in 10.0 miles NW 8.1 mph - N/A   Mostly Cloudy
12:22 AM 32.0°F 28.4°F 87% 29.83 in 10.0 miles WNW 8.1 mph - N/A   Mostly Cloudy
12:27 AM 32.0°F 28.4°F 87% 29.83 in 10.0 miles NW 9.2 mph - N/A   Scattered Clouds
12:35 AM 32.0°F 28.4°F 87% 29.83 in 10.0 miles NW 9.2 mph - N/A   Mostly Cloudy
12:52 AM 32.0°F 28.0°F 85% 29.85 in 10.0 miles NW 10.4 mph - N/A   Mostly Cloudy
1:52 AM 30.2°F 28.4°F 93% 29.85 in 8.0 miles NW 10.4 mph - N/A   Overcast
2:36 AM 32.0°F 28.4°F 87% 29.85 in 8.0 miles NW 9.2 mph - 0.00 in   Overcast
2:52 AM 32.0°F 28.9°F 88% 29.87 in 10.0 miles NW 11.5 mph - 0.00 in   Overcast
3:52 AM 32.0°F 28.9°F 88% 29.88 in 10.0 miles NW 10.4 mph - N/A   Overcast
4:52 AM 32.0°F 28.9°F 88% 29.91 in 10.0 miles NW 8.1 mph - N/A   Overcast
5:52 AM 32.0°F 28.0°F 85% 29.93 in 7.0 miles NW 11.5 mph - 0.00 in Snow Light Snow
6:13 AM 32.0°F 28.4°F 87% 29.92 in 5.0 miles NW 10.4 mph - 0.00 in Snow Light Snow
6:52 AM 32.0°F 28.0°F 85% 29.95 in 8.0 miles NW 11.5 mph - 0.00 in   Overcast
7:27 AM 32.0°F 28.4°F 87% 29.95 in 2.0 miles NNW 9.2 mph - 0.00 in Snow Light Snow
7:30 AM 32.0°F 28.4°F 87% 29.95 in 1.8 miles NNW 10.4 mph - 0.00 in Snow Light Snow
7:39 AM 32.0°F 28.4°F 87% 29.95 in 2.0 miles NNW 11.5 mph - 0.01 in Snow Light Snow
7:48 AM 32.0°F 28.4°F 87% 29.95 in 5.0 miles NNW 11.5 mph 20.7 mph 0.01 in Snow Light Snow
7:52 AM 32.0°F 28.9°F 88% 29.98 in 7.0 miles NNW 11.5 mph 20.7 mph 0.01 in   Overcast
8:37 AM 33.8°F 28.4°F 81% 29.97 in 9.0 miles NNW 11.5 mph - N/A   Overcast
8:52 AM 33.1°F 28.0°F 82% 29.99 in 10.0 miles NNW 10.4 mph - N/A   Overcast
9:52 AM 34.0°F 28.0°F 79% 30.01 in 10.0 miles NNW 12.7 mph 18.4 mph N/A   Overcast
10:08 AM 33.8°F 28.4°F 81% 29.99 in 10.0 miles North 10.4 mph - N/A   Overcast
10:52 AM 35.1°F 28.0°F 76% 30.02 in 10.0 miles NNW 10.4 mph - N/A   Overcast
11:52 AM 35.1°F 27.0°F 72% 30.03 in 9.0 miles NNW 10.4 mph - N/A   Overcast
12:52 PM 35.1°F 27.0°F 72% 30.04 in 10.0 miles NW 9.2 mph - N/A   Overcast
1:52 PM 35.1°F 28.0°F 76% 30.04 in 10.0 miles NW 9.2 mph - N/A   Overcast
2:52 PM 35.1°F 27.0°F 72% 30.05 in 10.0 miles NNW 11.5 mph - N/A   Overcast
3:52 PM 35.1°F 27.0°F 72% 30.06 in 10.0 miles North 6.9 mph - N/A   Overcast
4:52 PM 35.1°F 27.0°F 72% 30.07 in 10.0 miles NNW 6.9 mph - N/A   Overcast
5:52 PM 34.0°F 26.1°F 73% 30.08 in 10.0 miles NNW 8.1 mph - N/A   Overcast
6:13 PM 33.8°F 26.6°F 75% 30.07 in 10.0 miles NNW 5.8 mph - N/A   Overcast
6:48 PM 33.8°F 26.6°F 75% 30.07 in 7.0 miles NNW 5.8 mph - 0.00 in Snow Light Snow
6:52 PM 33.1°F 27.0°F 78% 30.09 in 8.0 miles NW 6.9 mph - 0.00 in Snow Light Snow
7:28 PM 33.8°F 26.6°F 75% 30.08 in 10.0 miles WNW 6.9 mph - 0.00 in   Overcast
7:52 PM 33.1°F 28.0°F 82% 30.09 in 2.0 miles WNW 5.8 mph - 0.00 in Snow Light Snow
8:04 PM 32.0°F 28.4°F 87% 30.08 in 5.0 miles WNW 6.9 mph - 0.00 in Snow Light Snow
8:52 PM 32.0°F 28.9°F 88% 30.10 in 5.0 miles NW 5.8 mph - 0.00 in Snow Light Snow
9:10 PM 32.0°F 28.4°F 87% 30.08 in 2.5 miles WNW 5.8 mph - 0.01 in Snow Light Snow
9:23 PM 30.2°F 28.4°F 93% 30.09 in 3.0 miles WNW 5.8 mph - 0.01 in Snow Light Snow
9:52 PM 30.9°F 28.9°F 92% 30.11 in 4.0 miles NW 3.5 mph - 0.01 in Snow Light Snow
10:01 PM 30.2°F 28.4°F 93% 30.09 in 4.0 miles NNW 3.5 mph - 0.00 in Snow Light Snow
10:21 PM 30.2°F 28.4°F 93% 30.09 in 4.0 miles North 4.6 mph - 0.00 in Snow Light Snow
10:44 PM 30.2°F 28.4°F 93% 30.09 in 4.0 miles NNW 4.6 mph - 0.01 in Snow Light Snow
10:52 PM 30.9°F 28.0°F 89% 30.12 in 4.0 miles NNW 3.5 mph - 0.01 in Snow Light Snow
11:25 PM 30.2°F 28.4°F 93% 30.09 in 4.0 miles Calm Calm - 0.00 in Snow Light Snow
11:47 PM 30.2°F 28.4°F 93% 30.09 in 3.0 miles NNE 5.8 mph - 0.00 in Snow Light Snow
11:52 PM 30.9°F 28.0°F 89% 30.11 in 3.0 miles NNE 4.6 mph - 0.00 in Snow Light Snow
Astronomy
Sunrise:06:37 AM (CST) Moon Rise:09:22 PM (CST)2/28
Sunset:05:51 PM (CST) Moon Set:07:44 AM (CST)2/28
Moon Phase
Feb. 28 Mar. 04 Mar. 11 Mar. 19 Mar. 27

Copyright © 2014 The Weather Underground, Inc.















  Today is Monday, Nov. 17, the 321st day of 2014. There are 44 days left in the year.

1864 -- 150 years ago: The ferry landing has been moved a little downstream because of the increase of sandbars above and opposite the old landing place.
1889 -- 125 years ago: Ben Eden purchased the Union Meat Market at 207 20th St.
1914 -- 100 years ago: Washington dispatches declared the bad effects of war upon trade had ended, a restoration of credit balance with Europe relieving the situation.
1939 -- 75 years ago: The maintenance foreman on the Iowa Illinois Memorial Bridge between Moline and Bettendorf lost his life when he slipped and fell into the Mississippi River.
1964 -- 50 years ago: The Black Hawk College Board of Education last night formally expressed appreciation for a proposed gift of 44 acres of land for a building site but could not take any other action until after a Nov. 24 stockholders meeting of the donor company.
1989 -- 25 years ago: A Rock Island County committee has approved a jail inmate phone service that could bring the county an additional $30,000 to $40,000 a year.